Track STARLINK-2018 now! 10-day predictions STARLINK-2018 is classified as:
1 47640U 21012W 21107.91667824 -.00010008 00000-0 -65401-3 0 9991 2 47640 53.0516 172.7411 0001121 69.2587 144.9370 15.06393630 1755